| time (UTC) | temp F | wind direction | speed MPH | gust MPH | rain 1hr in | rain 24hr in | rain mn in | humidity % | barometer mb |
| 20260509090024 | 59 | 307 | 11.0 | 19.0 | 0.00 | 0.14 | 0.12 | 48 | 990.8 |
| 20260509085503 | 59 | 307 | 10.0 | 19.0 | 0.00 | 0.14 | 0.12 | 48 | 990.8 |
| 20260509085003 | 59 | 306 | 10.0 | 18.0 | 0.00 | 0.14 | 0.12 | 48 | 990.8 |
| 20260509084503 | 59 | 306 | 10.0 | 19.0 | 0.00 | 0.14 | 0.12 | 49 | 990.7 |
| 20260509084003 | 59 | 308 | 10.0 | 19.0 | 0.00 | 0.14 | 0.12 | 49 | 990.8 |
| 20260509083524 | 58 | 309 | 10.0 | 19.0 | 0.00 | 0.14 | 0.12 | 49 | 990.8 |
| 20260509083003 | 58 | 306 | 10.0 | 20.0 | 0.00 | 0.14 | 0.12 | 49 | 990.8 |
| 20260509082503 | 59 | 304 | 10.0 | 20.0 | 0.00 | 0.14 | 0.12 | 49 | 990.8 |
| 20260509082003 | 59 | 305 | 10.0 | 22.0 | 0.00 | 0.14 | 0.12 | 49 | 990.9 |
| 20260509081524 | 59 | 306 | 12.0 | 22.0 | 0.00 | 0.14 | 0.12 | 49 | 990.9 |
| 20260509081003 | 59 | 313 | 13.0 | 21.0 | 0.00 | 0.14 | 0.12 | 49 | 990.9 |
| 20260509080503 | 59 | 315 | 12.0 | 21.0 | 0.00 | 0.14 | 0.12 | 49 | 990.8 |
| 20260509080003 | 59 | 308 | 12.0 | 21.0 | 0.00 | 0.14 | 0.12 | 49 | 990.8 |
| 20260509075503 | 59 | 307 | 12.0 | 22.0 | 0.00 | 0.14 | 0.12 | 49 | 990.8 |
| 20260509075003 | 59 | 311 | 12.0 | 25.0 | 0.00 | 0.14 | 0.12 | 49 | 990.7 |
| 20260509074524 | 59 | 309 | 11.0 | 25.0 | 0.00 | 0.14 | 0.12 | 49 | 990.6 |
| 20260509074003 | 58 | 308 | 11.0 | 24.0 | 0.00 | 0.14 | 0.12 | 49 | 990.4 |
| 20260509073503 | 58 | 312 | 10.0 | 20.0 | 0.00 | 0.14 | 0.12 | 49 | 990.3 |
| 20260509073003 | 58 | 315 | 10.0 | 20.0 | 0.00 | 0.14 | 0.12 | 49 | 990.1 |
| 20260509072503 | 58 | 319 | 10.0 | 20.0 | 0.00 | 0.14 | 0.12 | 50 | 990.2 |
| 20260509072003 | 58 | 319 | 9.0 | 18.0 | 0.00 | 0.14 | 0.12 | 50 | 990.0 |
| 20260509071503 | 58 | 321 | 9.0 | 23.0 | 0.00 | 0.14 | 0.12 | 50 | 990.0 |
| 20260509071024 | 58 | 326 | 9.0 | 23.0 | 0.00 | 0.14 | 0.12 | 50 | 990.0 |
| 20260509070503 | 58 | 326 | 9.0 | 17.0 | 0.00 | 0.14 | 0.12 | 51 | 990.0 |
| 20260509070003 | 57 | 324 | 7.0 | 17.0 | 0.00 | 0.14 | 0.12 | 52 | 990.2 |
| 20260509065503 | 56 | 329 | 5.0 | 16.0 | 0.00 | 0.14 | 0.12 | 54 | 990.0 |
| 20260509065003 | 56 | 339 | 5.0 | 16.0 | 0.00 | 0.14 | 0.12 | 57 | 989.9 |
| 20260509064503 | 56 | 344 | 6.0 | 14.0 | 0.00 | 0.14 | 0.12 | 61 | 989.9 |
| 20260509064025 | 56 | 353 | 7.0 | 14.0 | 0.00 | 0.14 | 0.12 | 62 | 989.9 |
| 20260509063524 | 57 | 354 | 9.0 | 16.0 | 0.00 | 0.14 | 0.12 | 62 | 989.9 |
| 20260509063024 | 57 | 348 | 10.0 | 23.0 | 0.00 | 0.14 | 0.12 | 61 | 989.8 |
| 20260509062524 | 56 | 346 | 7.0 | 23.0 | 0.00 | 0.14 | 0.12 | 57 | 989.8 |
| 20260509062024 | 56 | 343 | 5.0 | 20.0 | 0.00 | 0.14 | 0.12 | 60 | 989.7 |
| 20260509061524 | 55 | 347 | 5.0 | 16.0 | 0.00 | 0.14 | 0.12 | 63 | 989.8 |
| 20260509061024 | 55 | 347 | 5.0 | 16.0 | 0.00 | 0.14 | 0.12 | 65 | 989.7 |
| 20260509060503 | 54 | 356 | 3.0 | 11.0 | 0.00 | 0.14 | 0.12 | 66 | 989.8 |
| 20260509060003 | 54 | 21 | 2.0 | 11.0 | 0.00 | 0.14 | 0.12 | 69 | 989.7 |
| 20260509055503 | 54 | 58 | 3.0 | 4.0 | 0.00 | 0.14 | 0.12 | 70 | 989.7 |
| 20260509055003 | 54 | 35 | 4.0 | 8.0 | 0.00 | 0.14 | 0.12 | 73 | 989.8 |
| 20260509054503 | 55 | 51 | 5.0 | 13.0 | 0.00 | 0.14 | 0.12 | 74 | 989.7 |
| 20260509054024 | 54 | 68 | 5.0 | 13.0 | 0.00 | 0.14 | 0.12 | 75 | 989.7 |
| 20260509053503 | 55 | 96 | 4.0 | 13.0 | 0.00 | 0.14 | 0.12 | 77 | 989.7 |
| 20260509053003 | 56 | 135 | 3.0 | 8.0 | 0.00 | 0.15 | 0.12 | 77 | 989.7 |
| 20260509052503 | 56 | 113 | 3.0 | 7.0 | 0.00 | 0.15 | 0.12 | 76 | 989.7 |
| 20260509052003 | 56 | 96 | 3.0 | 6.0 | 0.00 | 0.15 | 0.12 | 75 | 989.8 |
| 20260509051503 | 57 | 105 | 3.0 | 9.0 | 0.00 | 0.17 | 0.12 | 75 | 989.9 |
| 20260509051024 | 57 | 104 | 3.0 | 9.0 | 0.00 | 0.18 | 0.12 | 75 | 989.8 |
| 20260509050503 | 57 | 75 | 5.0 | 9.0 | 0.00 | 0.20 | 0.12 | 73 | 989.7 |
| 20260509050003 | 57 | 38 | 8.0 | 12.0 | 0.00 | 0.23 | 0.12 | 72 | 989.7 |
| 20260509045503 | 58 | 347 | 8.0 | 18.0 | 0.00 | 0.24 | 0.12 | 68 | 989.8 |
| 20260509045003 | 60 | 326 | 9.0 | 18.0 | 0.00 | 0.25 | 0.12 | 46 | 989.8 |
| 20260509044503 | 60 | 322 | 10.0 | 20.0 | 0.00 | 0.25 | 0.12 | 48 | 989.9 |
| 20260509044003 | 60 | 321 | 9.0 | 20.0 | 0.00 | 0.25 | 0.12 | 48 | 989.9 |
| 20260509043524 | 61 | 318 | 8.0 | 19.0 | 0.00 | 0.26 | 0.12 | 47 | 989.9 |
| 20260509043003 | 61 | 316 | 8.0 | 14.0 | 0.00 | 0.26 | 0.12 | 48 | 989.9 |
| 20260509042503 | 61 | 325 | 7.0 | 15.0 | 0.00 | 0.27 | 0.12 | 48 | 990.0 |
| 20260509042004 | 61 | 323 | 6.0 | 15.0 | 0.00 | 0.28 | 0.12 | 48 | 990.0 |
| 20260509041503 | 61 | 309 | 6.0 | 13.0 | 0.00 | 0.30 | 0.12 | 49 | 990.1 |
| 20260509041024 | 61 | 312 | 6.0 | 13.0 | 0.00 | 0.31 | 0.12 | 48 | 990.0 |
| 20260509040503 | 62 | 315 | 4.0 | 13.0 | 0.00 | 0.32 | 0.12 | 49 | 990.0 |
| 20260509040004 | 62 | 327 | 3.0 | 13.0 | 0.00 | 0.35 | 0.12 | 52 | 990.0 |
| 20260509035503 | 62 | 42 | 5.0 | 7.0 | 0.00 | 0.39 | 0.12 | 64 | 989.9 |
| 20260509035003 | 62 | 45 | 7.0 | 10.0 | 0.00 | 0.40 | 0.12 | 70 | 989.9 |
| 20260509034503 | 63 | 348 | 8.0 | 14.0 | 0.00 | 0.43 | 0.12 | 59 | 989.9 |
| 20260509034003 | 64 | 328 | 8.0 | 16.0 | 0.00 | 0.44 | 0.12 | 46 | 989.9 |
| 20260509033524 | 64 | 333 | 9.0 | 16.0 | 0.00 | 0.44 | 0.12 | 49 | 990.0 |
| 20260509033003 | 64 | 326 | 7.0 | 17.0 | 0.00 | 0.44 | 0.12 | 49 | 989.9 |
| 20260509032503 | 64 | 313 | 4.0 | 17.0 | 0.00 | 0.44 | 0.12 | 48 | 990.0 |
| 20260509032003 | 64 | 322 | 3.0 | 10.0 | 0.00 | 0.45 | 0.12 | 53 | 989.9 |
| 20260509031503 | 64 | 360 | 2.0 | 10.0 | 0.00 | 0.45 | 0.12 | 58 | 989.9 |
| 20260509031004 | 63 | 37 | 3.0 | 6.0 | 0.00 | 0.45 | 0.12 | 66 | 989.8 |
| 20260509030503 | 63 | 44 | 4.0 | 6.0 | 0.00 | 0.45 | 0.12 | 71 | 989.8 |
| 20260509030003 | 63 | 60 | 5.0 | 8.0 | 0.00 | 0.46 | 0.12 | 74 | 989.8 |
| 20260509025503 | 62 | 55 | 6.0 | 9.0 | 0.00 | 0.46 | 0.12 | 74 | 989.8 |
| 20260509025003 | 62 | 54 | 6.0 | 10.0 | 0.00 | 0.47 | 0.12 | 76 | 989.7 |
| 20260509024503 | 61 | 63 | 5.0 | 10.0 | 0.00 | 0.47 | 0.12 | 76 | 989.6 |
| 20260509024024 | 61 | 67 | 5.0 | 10.0 | 0.00 | 0.47 | 0.12 | 76 | 989.6 |
| 20260509023503 | 61 | 66 | 6.0 | 10.0 | 0.00 | 0.47 | 0.12 | 78 | 989.6 |
| 20260509023004 | 60 | 66 | 6.0 | 12.0 | 0.00 | 0.47 | 0.12 | 77 | 989.7 |
| 20260509022503 | 60 | 68 | 6.0 | 12.0 | 0.00 | 0.47 | 0.12 | 79 | 989.7 |
| 20260509022003 | 60 | 68 | 6.0 | 11.0 | 0.00 | 0.47 | 0.12 | 78 | 989.8 |
| 20260509021503 | 60 | 67 | 6.0 | 10.0 | 0.00 | 0.47 | 0.12 | 79 | 989.7 |
| 20260509021004 | 60 | 71 | 5.0 | 10.0 | 0.00 | 0.47 | 0.12 | 79 | 989.8 |
| 20260509020503 | 60 | 68 | 5.0 | 10.0 | 0.00 | 0.48 | 0.12 | 78 | 989.9 |
| 20260509020003 | 60 | 59 | 5.0 | 9.0 | 0.00 | 0.49 | 0.12 | 79 | 990.1 |
| 20260509015504 | 60 | 70 | 5.0 | 9.0 | 0.00 | 0.50 | 0.12 | 79 | 990.1 |
| 20260509015003 | 60 | 76 | 5.0 | 9.0 | 0.00 | 0.50 | 0.12 | 80 | 990.2 |
| 20260509014503 | 59 | 72 | 5.0 | 9.0 | 0.00 | 0.50 | 0.12 | 79 | 990.3 |
| 20260509014003 | 59 | 68 | 4.0 | 9.0 | 0.00 | 0.50 | 0.12 | 79 | 990.3 |
| 20260509013524 | 60 | 68 | 4.0 | 8.0 | 0.00 | 0.50 | 0.12 | 78 | 990.4 |
| 20260509013003 | 60 | 79 | 4.0 | 8.0 | 0.00 | 0.50 | 0.12 | 81 | 990.3 |
| 20260509012524 | 59 | 81 | 5.0 | 8.0 | 0.00 | 0.50 | 0.12 | 80 | 990.4 |
| 20260509012024 | 59 | 70 | 5.0 | 10.0 | 0.00 | 0.50 | 0.12 | 81 | 990.5 |
| 20260509011503 | 59 | 70 | 5.0 | 10.0 | 0.00 | 0.50 | 0.12 | 80 | 990.5 |
| 20260509011003 | 59 | 66 | 5.0 | 10.0 | 0.00 | 0.50 | 0.12 | 80 | 990.6 |
| 20260509010503 | 59 | 61 | 4.0 | 9.0 | 0.00 | 0.50 | 0.12 | 81 | 990.7 |
| 20260509010004 | 59 | 68 | 3.0 | 9.0 | 0.00 | 0.50 | 0.12 | 80 | 990.7 |
| 20260509005503 | 58 | 77 | 3.0 | 8.0 | 0.00 | 0.50 | 0.12 | 81 | 990.8 |
| 20260509005004 | 58 | 82 | 3.0 | 6.0 | 0.00 | 0.50 | 0.12 | 82 | 990.9 |
| 20260509004503 | 58 | 74 | 3.0 | 8.0 | 0.00 | 0.50 | 0.12 | 82 | 991.0 |
| 20260509004003 | 56 | 70 | 4.0 | 8.0 | 0.00 | 0.50 | 0.12 | 83 | 991.1 |
| 20260509003503 | 57 | 75 | 4.0 | 7.0 | 0.00 | 0.50 | 0.12 | 81 | 991.2 |
| 20260509003025 | 56 | 76 | 4.0 | 8.0 | 0.00 | 0.50 | 0.12 | 81 | 991.2 |
| 20260509002503 | 57 | 75 | 4.0 | 8.0 | 0.00 | 0.50 | 0.12 | 81 | 991.2 |
| 20260509002004 | 58 | 68 | 4.0 | 7.0 | 0.00 | 0.50 | 0.12 | 80 | 991.4 |
| 20260509001503 | 58 | 67 | 4.0 | 7.0 | 0.00 | 0.50 | 0.12 | 82 | 991.5 |
| 20260509001003 | 58 | 68 | 4.0 | 7.0 | 0.00 | 0.50 | 0.12 | 82 | 991.5 |
| 20260509000502 | 57 | 71 | 3.0 | 7.0 | 0.00 | 0.50 | 0.12 | 83 | 991.6 |
| 20260509000002 | 57 | 72 | 3.0 | 7.0 | 0.00 | 0.50 | 0.12 | 83 | 991.6 |
| 20260508235502 | 56 | 67 | 3.0 | 5.0 | 0.00 | 0.50 | 0.12 | 84 | 991.7 |
| 20260508235002 | 56 | 74 | 2.0 | 6.0 | 0.00 | 0.50 | 0.12 | 84 | 991.8 |
| 20260508234502 | 56 | 87 | 2.0 | 6.0 | 0.00 | 0.50 | 0.12 | 83 | 991.8 |
| 20260508234002 | 56 | 96 | 2.0 | 6.0 | 0.00 | 0.50 | 0.12 | 83 | 991.8 |
| 20260508233502 | 56 | 112 | 2.0 | 7.0 | 0.00 | 0.50 | 0.12 | 84 | 992.0 |
| 20260508233002 | 55 | 114 | 2.0 | 7.0 | 0.00 | 0.50 | 0.12 | 84 | 992.0 |
| 20260508232503 | 55 | 102 | 2.0 | 4.0 | 0.00 | 0.50 | 0.12 | 84 | 992.1 |
| 20260508232003 | 55 | 103 | 2.0 | 4.0 | 0.00 | 0.50 | 0.12 | 85 | 992.0 |
| 20260508231502 | 55 | 103 | 2.0 | 4.0 | 0.00 | 0.50 | 0.12 | 84 | 992.0 |
| 20260508231003 | 54 | 101 | 2.0 | 4.0 | 0.00 | 0.50 | 0.12 | 84 | 991.9 |
| 20260508230523 | 54 | 111 | 2.0 | 5.0 | 0.00 | 0.50 | 0.12 | 85 | 992.0 |
| 20260508230003 | 54 | 120 | 2.0 | 5.0 | 0.00 | 0.50 | 0.12 | 85 | 991.9 |
| 20260508225503 | 54 | 123 | 2.0 | 5.0 | 0.00 | 0.50 | 0.12 | 84 | 991.9 |
| 20260508225002 | 55 | 135 | 3.0 | 5.0 | 0.00 | 0.50 | 0.12 | 85 | 991.9 |
| 20260508224503 | 55 | 152 | 3.0 | 5.0 | 0.00 | 0.50 | 0.12 | 85 | 991.9 |
| 20260508224002 | 55 | 173 | 3.0 | 5.0 | 0.00 | 0.50 | 0.12 | 85 | 992.1 |
| 20260508223502 | 55 | 182 | 3.0 | 7.0 | 0.00 | 0.50 | 0.12 | 85 | 992.1 |
| 20260508223024 | 55 | 181 | 3.0 | 7.0 | 0.00 | 0.50 | 0.12 | 85 | 992.2 |
| 20260508222502 | 55 | 178 | 4.0 | 6.0 | 0.00 | 0.50 | 0.12 | 86 | 992.1 |
| 20260508222002 | 55 | 194 | 3.0 | 7.0 | 0.00 | 0.50 | 0.12 | 86 | 992.1 |
| 20260508221502 | 55 | 213 | 3.0 | 8.0 | 0.00 | 0.50 | 0.12 | 86 | 992.1 |
| 20260508221002 | 55 | 213 | 3.0 | 8.0 | 0.00 | 0.50 | 0.12 | 86 | 992.3 |
| 20260508220502 | 55 | 202 | 2.0 | 7.0 | 0.00 | 0.50 | 0.12 | 86 | 992.2 |
| 20260508220002 | 54 | 216 | 1.0 | 7.0 | 0.00 | 0.50 | 0.12 | 86 | 992.2 |
| 20260508215523 | 54 | 10 | 1.0 | 3.0 | 0.00 | 0.50 | 0.12 | 86 | 992.0 |
| 20260508215003 | 54 | 11 | 2.0 | 3.0 | 0.00 | 0.50 | 0.12 | 86 | 991.8 |
| 20260508214523 | 54 | 4 | 3.0 | 4.0 | 0.00 | 0.50 | 0.12 | 86 | 991.5 |
| 20260508214002 | 54 | 344 | 3.0 | 6.0 | 0.00 | 0.50 | 0.12 | 86 | 991.7 |
| 20260508213502 | 54 | 339 | 3.0 | 6.0 | 0.00 | 0.50 | 0.12 | 86 | 991.6 |
| 20260508213003 | 54 | 331 | 2.0 | 6.0 | 0.00 | 0.50 | 0.12 | 86 | 991.5 |
| 20260508212503 | 54 | 321 | 1.0 | 4.0 | 0.00 | 0.50 | 0.12 | 86 | 991.7 |
| 20260508212024 | 54 | 314 | 1.0 | 3.0 | 0.00 | 0.50 | 0.12 | 86 | 991.9 |
| 20260508211503 | 54 | 314 | 1.0 | 3.0 | 0.00 | 0.50 | 0.12 | 86 | 992.1 |
| 20260508211002 | 53 | 314 | 1.0 | 2.0 | 0.00 | 0.50 | 0.12 | 86 | 992.1 |
| 20260508210502 | 53 | 314 | 2.0 | 3.0 | 0.00 | 0.50 | 0.12 | 86 | 991.9 |
| 20260508210024 | 53 | 313 | 2.0 | 4.0 | 0.00 | 0.50 | 0.12 | 86 | 991.9 |
| 20260508205523 | 53 | 306 | 2.0 | 4.0 | 0.00 | 0.50 | 0.12 | 86 | 991.9 |
| 20260508205003 | 53 | 291 | 2.0 | 6.0 | 0.00 | 0.50 | 0.12 | 86 | 991.9 |
| 20260508204503 | 53 | 263 | 2.0 | 6.0 | 0.00 | 0.50 | 0.12 | 86 | 991.8 |
| 20260508204003 | 53 | 240 | 3.0 | 5.0 | 0.00 | 0.50 | 0.12 | 86 | 991.7 |
| 20260508203503 | 53 | 231 | 3.0 | 6.0 | 0.00 | 0.50 | 0.12 | 85 | 991.7 |
| 20260508203002 | 53 | 232 | 4.0 | 7.0 | 0.00 | 0.50 | 0.12 | 85 | 991.8 |
| 20260508202524 | 53 | 236 | 4.0 | 9.0 | 0.00 | 0.50 | 0.12 | 85 | 991.7 |
| 20260508202003 | 53 | 236 | 4.0 | 10.0 | 0.00 | 0.50 | 0.12 | 85 | 991.6 |
| 20260508201503 | 53 | 235 | 5.0 | 10.0 | 0.00 | 0.50 | 0.12 | 85 | 991.5 |
| 20260508201003 | 53 | 229 | 4.0 | 9.0 | 0.00 | 0.50 | 0.12 | 85 | 991.4 |
| 20260508200502 | 53 | 225 | 4.0 | 9.0 | 0.00 | 0.50 | 0.12 | 85 | 991.4 |
| 20260508200003 | 53 | 225 | 5.0 | 9.0 | 0.00 | 0.50 | 0.12 | 85 | 991.2 |
| 20260508195502 | 53 | 215 | 6.0 | 11.0 | 0.00 | 0.50 | 0.12 | 85 | 991.0 |
| 20260508195023 | 53 | 212 | 6.0 | 11.0 | 0.00 | 0.50 | 0.12 | 85 | 990.9 |
| 20260508194502 | 53 | 207 | 7.0 | 11.0 | 0.00 | 0.50 | 0.12 | 84 | 990.8 |
| 20260508194023 | 53 | 204 | 8.0 | 11.0 | 0.00 | 0.50 | 0.12 | 84 | 990.6 |
| 20260508193503 | 52 | 203 | 8.0 | 14.0 | 0.00 | 0.50 | 0.12 | 84 | 990.4 |
| 20260508193003 | 52 | 202 | 6.0 | 15.0 | 0.00 | 0.50 | 0.12 | 84 | 990.2 |
| 20260508192503 | 52 | 210 | 6.0 | 15.0 | 0.00 | 0.50 | 0.12 | 83 | 990.0 |
| 20260508192023 | 52 | 218 | 7.0 | 10.0 | 0.00 | 0.50 | 0.12 | 83 | 989.9 |
| 20260508191502 | 52 | 205 | 9.0 | 13.0 | 0.00 | 0.50 | 0.12 | 82 | 989.7 |
| 20260508191003 | 53 | 200 | 9.0 | 14.0 | 0.00 | 0.50 | 0.12 | 82 | 989.5 |
| 20260508190503 | 53 | 196 | 7.0 | 15.0 | 0.00 | 0.50 | 0.12 | 81 | 989.4 |
| 20260508190003 | 53 | 193 | 5.0 | 15.0 | 0.00 | 0.50 | 0.12 | 80 | 989.1 |
| 20260508185503 | 54 | 197 | 5.0 | 11.0 | 0.00 | 0.50 | 0.12 | 77 | 989.1 |
| 20260508185003 | 54 | 195 | 4.0 | 11.0 | 0.00 | 0.50 | 0.12 | 76 | 988.9 |
| 20260508184503 | 55 | 176 | 2.0 | 10.0 | 0.00 | 0.50 | 0.12 | 74 | 988.8 |
| 20260508184003 | 55 | 136 | 2.0 | 6.0 | 0.00 | 0.50 | 0.12 | 73 | 988.6 |
| 20260508183524 | 56 | 22 | 2.0 | 5.0 | 0.00 | 0.50 | 0.12 | 72 | 988.3 |
| 20260508183024 | 56 | 312 | 3.0 | 4.0 | 0.00 | 0.50 | 0.12 | 71 | 988.3 |
| 20260508182503 | 56 | 208 | 4.0 | 5.0 | 0.00 | 0.50 | 0.12 | 70 | 988.2 |
| 20260508182023 | 57 | 205 | 4.0 | 9.0 | 0.00 | 0.50 | 0.12 | 70 | 988.0 |
| 20260508181503 | 57 | 225 | 4.0 | 9.0 | 0.00 | 0.50 | 0.12 | 68 | 988.0 |
| 20260508181003 | 58 | 267 | 4.0 | 9.0 | 0.00 | 0.50 | 0.12 | 67 | 987.9 |
| 20260508180524 | 58 | 287 | 4.0 | 9.0 | 0.00 | 0.50 | 0.12 | 67 | 987.7 |
| 20260508180003 | 58 | 297 | 5.0 | 9.0 | 0.00 | 0.50 | 0.12 | 67 | 987.6 |
| 20260508175502 | 58 | 304 | 6.0 | 11.0 | 0.00 | 0.50 | 0.12 | 67 | 987.5 |
| 20260508175003 | 57 | 304 | 6.0 | 11.0 | 0.00 | 0.50 | 0.12 | 68 | 987.4 |
| 20260508174524 | 57 | 306 | 6.0 | 11.0 | 0.00 | 0.50 | 0.12 | 68 | 987.3 |
| 20260508174003 | 57 | 311 | 6.0 | 11.0 | 0.00 | 0.50 | 0.12 | 69 | 987.2 |
| 20260508173524 | 57 | 323 | 7.0 | 12.0 | 0.00 | 0.50 | 0.12 | 69 | 986.9 |
| 20260508173003 | 57 | 336 | 6.0 | 12.0 | 0.00 | 0.50 | 0.12 | 70 | 986.6 |
| 20260508172503 | 57 | 339 | 5.0 | 11.0 | 0.00 | 0.50 | 0.12 | 70 | 986.4 |
| 20260508172002 | 57 | 336 | 5.0 | 10.0 | 0.00 | 0.50 | 0.12 | 69 | 986.3 |
| 20260508171503 | 57 | 334 | 5.0 | 9.0 | 0.00 | 0.50 | 0.12 | 69 | 986.3 |
| 20260508171003 | 57 | 337 | 5.0 | 9.0 | 0.00 | 0.50 | 0.12 | 69 | 986.3 |
| 20260508170503 | 57 | 338 | 5.0 | 9.0 | 0.00 | 0.50 | 0.12 | 69 | 986.2 |
| 20260508170003 | 57 | 339 | 6.0 | 9.0 | 0.00 | 0.50 | 0.12 | 69 | 986.2 |
| 20260508165503 | 57 | 335 | 5.0 | 11.0 | 0.00 | 0.50 | 0.12 | 69 | 986.3 |
| 20260508165024 | 57 | 333 | 5.0 | 11.0 | 0.00 | 0.50 | 0.12 | 69 | 986.4 |
| 20260508164503 | 57 | 330 | 6.0 | 10.0 | 0.00 | 0.50 | 0.12 | 70 | 986.4 |
| 20260508164003 | 57 | 332 | 6.0 | 10.0 | 0.00 | 0.50 | 0.12 | 70 | 986.4 |
| 20260508163503 | 57 | 336 | 6.0 | 12.0 | 0.00 | 0.50 | 0.12 | 70 | 986.3 |
| 20260508163003 | 56 | 340 | 5.0 | 12.0 | 0.00 | 0.50 | 0.12 | 71 | 986.3 |
| 20260508162503 | 56 | 340 | 5.0 | 8.0 | 0.00 | 0.50 | 0.12 | 72 | 986.1 |
| 20260508162003 | 56 | 331 | 4.0 | 10.0 | 0.00 | 0.50 | 0.12 | 72 | 986.0 |
| 20260508161503 | 56 | 326 | 3.0 | 10.0 | 0.00 | 0.50 | 0.12 | 72 | 986.0 |
| 20260508161024 | 55 | 320 | 2.0 | 9.0 | 0.00 | 0.50 | 0.12 | 72 | 985.9 |
| 20260508160502 | 55 | 296 | 1.0 | 5.0 | 0.00 | 0.50 | 0.12 | 72 | 985.8 |
| 20260508160003 | 56 | 243 | 1.0 | 3.0 | 0.00 | 0.50 | 0.12 | 71 | 985.7 |
| 20260508155502 | 56 | 242 | 1.0 | 3.0 | 0.00 | 0.50 | 0.12 | 71 | 985.5 |
| 20260508155003 | 56 | 241 | 1.0 | 3.0 | 0.00 | 0.50 | 0.12 | 71 | 985.5 |
| 20260508154503 | 56 | 239 | 1.0 | 3.0 | 0.00 | 0.50 | 0.12 | 70 | 985.3 |
| 20260508154024 | 56 | 258 | 1.0 | 3.0 | 0.00 | 0.50 | 0.12 | 70 | 985.1 |
| 20260508153503 | 57 | 264 | 1.0 | 4.0 | 0.00 | 0.50 | 0.12 | 69 | 985.1 |
| 20260508153024 | 57 | 245 | 2.0 | 4.0 | 0.00 | 0.50 | 0.12 | 70 | 984.9 |
| 20260508152502 | 57 | 242 | 4.0 | 6.0 | 0.00 | 0.50 | 0.12 | 69 | 984.8 |
| 20260508152003 | 57 | 268 | 5.0 | 8.0 | 0.00 | 0.50 | 0.12 | 69 | 984.6 |
| 20260508151503 | 57 | 279 | 7.0 | 12.0 | 0.00 | 0.50 | 0.12 | 69 | 984.7 |
| 20260508151003 | 57 | 292 | 8.0 | 12.0 | 0.00 | 0.50 | 0.12 | 70 | 984.3 |
| 20260508150524 | 57 | 304 | 8.0 | 15.0 | 0.00 | 0.50 | 0.12 | 70 | 984.3 |
| 20260508150003 | 57 | 312 | 9.0 | 15.0 | 0.00 | 0.50 | 0.12 | 71 | 983.9 |
| 20260508145524 | 57 | 331 | 10.0 | 18.0 | 0.00 | 0.50 | 0.12 | 71 | 984.0 |
| 20260508145003 | 57 | 341 | 12.0 | 18.0 | 0.00 | 0.50 | 0.12 | 72 | 984.1 |
| 20260508144503 | 57 | 355 | 13.0 | 21.0 | 0.00 | 0.50 | 0.12 | 72 | 984.2 |
| 20260508144002 | 57 | 11 | 13.0 | 21.0 | 0.00 | 0.50 | 0.12 | 72 | 983.9 |
| 20260508143503 | 57 | 26 | 11.0 | 22.0 | 0.00 | 0.50 | 0.12 | 72 | 983.6 |
| 20260508143003 | 57 | 44 | 9.0 | 22.0 | 0.01 | 0.50 | 0.12 | 72 | 983.6 |
| 20260508142503 | 57 | 57 | 9.0 | 17.0 | 0.01 | 0.50 | 0.12 | 73 | 984.0 |
| 20260508142003 | 57 | 56 | 10.0 | 15.0 | 0.01 | 0.50 | 0.12 | 73 | 984.6 |
| 20260508141503 | 56 | 38 | 11.0 | 20.0 | 0.01 | 0.50 | 0.12 | 73 | 984.8 |
| 20260508141024 | 56 | 28 | 13.0 | 20.0 | 0.01 | 0.50 | 0.12 | 74 | 984.7 |
| 20260508140503 | 56 | 23 | 16.0 | 25.0 | 0.02 | 0.50 | 0.12 | 75 | 984.2 |
| 20260508140003 | 56 | 26 | 17.0 | 25.0 | 0.02 | 0.50 | 0.12 | 75 | 983.5 |
| 20260508135503 | 56 | 28 | 16.0 | 34.0 | 0.03 | 0.50 | 0.12 | 76 | 982.8 |
| 20260508135002 | 56 | 25 | 15.0 | 34.0 | 0.03 | 0.50 | 0.12 | 76 | 982.4 |
| 20260508134503 | 56 | 20 | 15.0 | 29.0 | 0.05 | 0.50 | 0.12 | 77 | 983.2 |
| 20260508134003 | 56 | 15 | 15.0 | 29.0 | 0.06 | 0.50 | 0.12 | 77 | 984.2 |
| 20260508133503 | 56 | 13 | 15.0 | 26.0 | 0.08 | 0.50 | 0.12 | 77 | 984.5 |
| 20260508133003 | 57 | 9 | 14.0 | 30.0 | 0.09 | 0.49 | 0.11 | 76 | 984.8 |
| 20260508132503 | 57 | 4 | 12.0 | 30.0 | 0.10 | 0.49 | 0.11 | 77 | 984.8 |
| 20260508132003 | 56 | 358 | 11.0 | 22.0 | 0.10 | 0.49 | 0.11 | 77 | 985.6 |
| 20260508131503 | 56 | 357 | 9.0 | 22.0 | 0.10 | 0.49 | 0.11 | 77 | 985.8 |
| 20260508131003 | 56 | 356 | 9.0 | 16.0 | 0.11 | 0.49 | 0.11 | 77 | 985.8 |
| 20260508130503 | 57 | 356 | 9.0 | 15.0 | 0.09 | 0.47 | 0.09 | 76 | 985.7 |
| 20260508130003 | 57 | 352 | 7.0 | 15.0 | 0.09 | 0.47 | 0.09 | 75 | 985.9 |
| 20260508125503 | 57 | 351 | 6.0 | 15.0 | 0.09 | 0.46 | 0.09 | 75 | 986.0 |
| 20260508125003 | 58 | 360 | 7.0 | 12.0 | 0.09 | 0.46 | 0.09 | 74 | 986.2 |
| 20260508124503 | 58 | 359 | 9.0 | 13.0 | 0.08 | 0.45 | 0.07 | 74 | 986.1 |
| 20260508124003 | 58 | 336 | 10.0 | 24.0 | 0.06 | 0.43 | 0.06 | 73 | 986.4 |
| 20260508123503 | 58 | 326 | 10.0 | 25.0 | 0.05 | 0.42 | 0.04 | 73 | 986.6 |
| 20260508123003 | 58 | 329 | 8.0 | 25.0 | 0.03 | 0.40 | 0.02 | 73 | 986.5 |
| 20260508122503 | 57 | 328 | 5.0 | 18.0 | 0.02 | 0.39 | 0.01 | 74 | 986.3 |
| 20260508122003 | 57 | 321 | 3.0 | 18.0 | 0.02 | 0.39 | 0.01 | 73 | 985.9 |
| 20260508121503 | 57 | 296 | 2.0 | 9.0 | 0.02 | 0.39 | 0.01 | 72 | 985.4 |
| 20260508121024 | 58 | 254 | 3.0 | 5.0 | 0.02 | 0.38 | 0.00 | 72 | 985.2 |
| 20260508120503 | 58 | 274 | 3.0 | 7.0 | 0.02 | 0.38 | 0.00 | 71 | 985.4 |
| 20260508120003 | 58 | 320 | 3.0 | 7.0 | 0.02 | 0.38 | 0.00 | 71 | 985.7 |
| 20260508115503 | 58 | 357 | 4.0 | 6.0 | 0.02 | 0.38 | 0.38 | 69 | 985.7 |
| 20260508115024 | 58 | 340 | 4.0 | 15.0 | 0.02 | 0.38 | 0.38 | 69 | 985.8 |
| 20260508114503 | 59 | 338 | 5.0 | 15.0 | 0.02 | 0.37 | 0.37 | 69 | 985.7 |
| 20260508114003 | 59 | 350 | 6.0 | 10.0 | 0.02 | 0.37 | 0.37 | 68 | 985.9 |
| 20260508113503 | 59 | 358 | 6.0 | 12.0 | 0.02 | 0.37 | 0.37 | 67 | 985.7 |
| 20260508113004 | 60 | 352 | 5.0 | 12.0 | 0.02 | 0.37 | 0.37 | 66 | 985.7 |
| 20260508112503 | 60 | 322 | 6.0 | 10.0 | 0.02 | 0.37 | 0.37 | 66 | 985.5 |
| 20260508112003 | 61 | 310 | 10.0 | 15.0 | 0.02 | 0.37 | 0.37 | 65 | 985.5 |
| 20260508111503 | 61 | 324 | 13.0 | 19.0 | 0.01 | 0.36 | 0.36 | 62 | 986.0 |
| 20260508111024 | 62 | 330 | 13.0 | 28.0 | 0.01 | 0.36 | 0.36 | 60 | 986.1 |
| 20260508110503 | 62 | 333 | 11.0 | 28.0 | 0.01 | 0.36 | 0.36 | 58 | 986.2 |
| 20260508110003 | 62 | 333 | 10.0 | 28.0 | 0.01 | 0.36 | 0.36 | 57 | 986.4 |
| 20260508105524 | 62 | 326 | 9.0 | 17.0 | 0.00 | 0.35 | 0.35 | 55 | 986.1 |
| 20260508105024 | 62 | 322 | 9.0 | 16.0 | 0.00 | 0.35 | 0.35 | 55 | 985.8 |
| 20260508104503 | 62 | 323 | 9.0 | 20.0 | 0.00 | 0.35 | 0.35 | 54 | 985.9 |
| 20260508104003 | 62 | 322 | 8.0 | 20.0 | 0.00 | 0.35 | 0.35 | 55 | 986.0 |
| 20260508103503 | 62 | 326 | 9.0 | 16.0 | 0.00 | 0.35 | 0.35 | 55 | 985.7 |
| 20260508103024 | 62 | 326 | 9.0 | 27.0 | 0.00 | 0.35 | 0.35 | 55 | 985.7 |
| 20260508102503 | 62 | 337 | 9.0 | 27.0 | 0.00 | 0.35 | 0.35 | 56 | 985.7 |
| 20260508102003 | 61 | 339 | 9.0 | 23.0 | 0.00 | 0.35 | 0.35 | 59 | 986.0 |
| 20260508101503 | 61 | 333 | 9.0 | 18.0 | 0.00 | 0.35 | 0.35 | 60 | 985.9 |
| 20260508101003 | 61 | 335 | 8.0 | 18.0 | 0.00 | 0.35 | 0.35 | 61 | 985.8 |
| 20260508100503 | 61 | 333 | 9.0 | 15.0 | 0.00 | 0.35 | 0.35 | 63 | 986.0 |
| 20260508100024 | 61 | 335 | 8.0 | 20.0 | 0.00 | 0.35 | 0.35 | 63 | 986.0 |
| 20260508095524 | 61 | 328 | 7.0 | 20.0 | 0.00 | 0.35 | 0.35 | 63 | 986.0 |
| 20260508095003 | 61 | 320 | 7.0 | 16.0 | 0.00 | 0.35 | 0.35 | 63 | 986.3 |
| 20260508094503 | 61 | 323 | 7.0 | 16.0 | 0.00 | 0.35 | 0.35 | 63 | 986.3 |
| 20260508094003 | 61 | 319 | 7.0 | 15.0 | 0.00 | 0.35 | 0.35 | 64 | 986.1 |
| 20260508093503 | 61 | 319 | 8.0 | 14.0 | 0.00 | 0.35 | 0.35 | 64 | 986.1 |
| 20260508093003 | 61 | 327 | 9.0 | 17.0 | 0.00 | 0.35 | 0.35 | 64 | 986.1 |
| 20260508092503 | 61 | 326 | 10.0 | 19.0 | 0.00 | 0.35 | 0.35 | 64 | 986.0 |
| 20260508092003 | 60 | 326 | 8.0 | 19.0 | 0.00 | 0.35 | 0.35 | 65 | 986.0 |
| 20260508091503 | 60 | 330 | 5.0 | 23.0 | 0.00 | 0.35 | 0.35 | 67 | 986.0 |
| 20260508091003 | 59 | 307 | 3.0 | 23.0 | 0.00 | 0.35 | 0.35 | 68 | 986.1 |
| 20260508090503 | 59 | 270 | 3.0 | 8.0 | 0.00 | 0.35 | 0.35 | 67 | 985.9 |